Oxnard, CA

8:41 AM PDT on June 28, 2017 (GMT -0700)
Oxnard

Weather History for KOXR - November, 2013

Change the Weather History Date:

Friday, November 8, 2013

  Actual Average Record
Temperature  
Mean Temperature 58 °F -  
Max Temperature 68 °F 69 °F 96 °F (1956)
Min Temperature 48 °F 49 °F 42 °F (1948)
Degree Days  
Heating Degree Days 7    
Growing Degree Days 8 (Base 50)    
Moisture  
Dew Point 45 °F    
Average Humidity 66    
Maximum Humidity 96    
Minimum Humidity 24    
Precipitation  
Precipitation 0.00 in - - ()
Sea Level Pressure  
Sea Level Pressure 29.98 in    
Wind  
Wind Speed 4 mph (ENE)    
Max Wind Speed 8 mph    
Max Gust Speed -    
Visibility 8 miles    
Events Fog    
Averages and records for this station are not official NWS values.
T = Trace of Precipitation, MM = Missing Value Source: NWS Daily Summary

Daily Weather History Graph

Daily Weather History Graph

Search for Another Location

Airport or City:

Trip Planner

Search our weather history database for the weather conditions in past years. The results will help you decide how hot, cold, wet, or windy it might be!

Date:

Astronomy

Nov. 08, 2013 Rise Set
Actual Time 6:23 AM PST 4:57 PM PST
Civil Twilight 5:57 AM PST 5:23 PM PST
Nautical Twilight 5:27 AM PST 5:53 PM PST
Astronomical Twilight 4:57 AM PST 6:23 PM PST
Moon 11:22 AM PST (11/8) 10:22 PM PST (11/8)
Length of Visible Light 11h 26m
Length of Day
10h 33m
Waxing Crescent, 34% of the Moon is Illuminated
Nov 8
Waxing Crescent
Nov 9
First Quarter
Nov 17
Full
Nov 25
Last Quarter
Dec 2
New

Hourly Weather History & Observations

Time (PST) Temp. Dew Point Humidity Pressure Visibility Wind Dir Wind Speed Gust Speed Precip Events Conditions
12:51 AM 48.9 °F 36.0 °F 61% 29.99 in 10.0 mi North 3.5 mph - N/A   Clear
1:51 AM 52.0 °F 30.0 °F 43% 29.99 in 10.0 mi Calm Calm - N/A   Clear
2:51 AM 54.0 °F 28.0 °F 37% 29.98 in 10.0 mi NE 8.1 mph - N/A   Clear
3:51 AM 54.0 °F 27.0 °F 35% 29.98 in 10.0 mi NE 6.9 mph - N/A   Clear
4:51 AM 52.0 °F 26.1 °F 37% 29.99 in 10.0 mi NE 3.5 mph - N/A   Clear
5:51 AM 52.0 °F 26.1 °F 37% 29.99 in 10.0 mi NE 8.1 mph - N/A   Clear
6:51 AM 53.1 °F 25.0 °F 34% 30.00 in 10.0 mi NE 4.6 mph - N/A   Clear
7:51 AM 59.0 °F 25.0 °F 27% 30.02 in 10.0 mi Calm Calm - N/A   Clear
8:51 AM 63.0 °F 25.0 °F 24% 30.02 in 10.0 mi Calm Calm - N/A   Clear
9:51 AM 66.0 °F 37.0 °F 34% 30.02 in 10.0 mi Variable 3.5 mph - N/A   Clear
10:51 AM 66.9 °F 55.0 °F 66% 30.01 in 10.0 mi South 5.8 mph - N/A   Partly Cloudy
11:51 AM 68.0 °F 54.0 °F 61% 29.99 in 10.0 mi SSE 8.1 mph - N/A   Clear
12:51 PM 66.9 °F 57.0 °F 70% 29.97 in 10.0 mi SSW 6.9 mph - N/A   Clear
1:51 PM 68.0 °F 55.0 °F 63% 29.95 in 10.0 mi South 4.6 mph - N/A   Clear
2:51 PM 66.0 °F 55.9 °F 70% 29.94 in 10.0 mi SW 6.9 mph - N/A   Clear
3:51 PM 64.9 °F 57.9 °F 78% 29.94 in 10.0 mi SW 5.8 mph - N/A   Partly Cloudy
4:51 PM 62.1 °F 57.9 °F 86% 29.94 in 10.0 mi Calm Calm - N/A   Partly Cloudy
5:51 PM 59.0 °F 57.0 °F 93% 29.95 in 8.0 mi Calm Calm - N/A   Clear
6:51 PM 59.0 °F 57.0 °F 93% 29.96 in 5.0 mi Calm Calm - N/A   Scattered Clouds
7:51 PM 57.0 °F 55.0 °F 93% 29.96 in 6.0 mi Calm Calm - N/A   Clear
8:51 PM 53.1 °F 50.0 °F 89% 29.97 in 10.0 mi NE 3.5 mph - N/A   Clear
9:51 PM 54.0 °F 46.9 °F 77% 29.98 in 10.0 mi Calm Calm - N/A   Clear
10:51 PM 53.1 °F 46.0 °F 77% 29.99 in 10.0 mi East 3.5 mph - N/A   Clear
11:20 PM 53.6 °F 48.2 °F 82% 30.00 in 10.0 mi Calm Calm - N/A   Scattered Clouds
11:28 PM 53.6 °F 48.2 °F 82% 30.00 in 8.0 mi Calm Calm - N/A   Mostly Cloudy
11:35 PM 53.6 °F 50.0 °F 88% 30.00 in 1.8 mi Calm Calm - N/A   Mostly Cloudy
11:43 PM 53.6 °F 51.8 °F 94% 30.00 in 0.2 mi Calm Calm - N/A Fog Fog
11:51 PM 53.1 °F 52.0 °F 96% 30.00 in 0.2 mi NE 4.6 mph - N/A Fog Fog
11:58 PM 53.6 °F 51.8 °F 94% 30.00 in 2.5 mi NE 4.6 mph - N/A   Overcast